Погода в Екатеринополье

Россия / Тамбовская область     52°15′35″N   42°49′00″E
темп.,
°C
ветер,
м/с
пор.,
м/с
влажн.,
%
обл.,
%
осадки,
мм/ч
давл.,
гПа
погр.,
м
12 апреля, пн
пн1200:00+5св5996100 0.0 1029204
03:00+5св51095100 0.0 1029187
06:00+6всв51193100 0.0 1029215
09:00+12всв697419 0.0 1029313
12:00+19вюв6848100 0.0 1028752
15:00+21вюв694087 0.0 10271399
18:00+18вюв5104886 0.0 1028266
21:00+13вюв4106422 0.0 1029155
13 апреля, вт
вт1300:00+11вюв5136875 0.0 1029209
03:00+9вюв4126677 0.0 1029176
06:00+8вюв5126783 0.0 1030188
09:00+14юв6114614 0.0 1029443
12:00+19юв78335 0.0 10291009
15:00+20юв78265 0.0 10271848
18:00+17вюв5941100 0.0 1027225
21:00+12вюв4105748 0.0 1028167
14 апреля, ср
ср1400:00+10вюв4116337 0.0 1027166
03:00+9вюв4116983 0.0 1026174
06:00+7вюв4116942 0.0 1026175
09:00+14вюв694753 0.0 1025416
12:00+18юв673359 0.0 10231109
15:00+19юв672980 0.0 10221651
18:00+16вюв484165 0.0 1021186
21:00+12вюв475480 0.0 1021105
15 апреля, чт
чт1500:00+10вюв476042 0.0 102098
03:00+8вюв35653 0.0 102054
06:00+8вюв34710 0.0 102063
09:00+14вюв45540 0.0 1019347
12:00+19вюв44390 0.0 10181265
15:00+20вюв45323 0.0 10162208
18:00+18вюв36436 0.0 1015114
21:00+14вюв47585 0.0 1015101
16 апреля, пт
пт1600:00+12вюв486666 0.0 1015113
03:00+11вюв477225 0.0 1014118
06:00+10в347975 0.2 101452
09:00+15вюв355574 0.3 1013378
12:00+20вюв453755 0.1 10131204
15:00+21ююв4533100 0.1 10122448
18:00+17ююз355591 0.1 1012123
21:00+12юв128399 2.4 101331